"2010-09-09 00:00:00",144301,16.88,342.1,3.773,1.142,22.98,107.0484,17.32,18.63,51.77,0,110.6,13.21,18.13,304.1
"2010-09-09 00:00:30",144302,16.68,343.7,5.823,1.008,22.62,107.0149,17.23,18.64,52.36,0,110.6,13.21,18.05,305.7
"2010-09-09 00:01:00",144303,16.94,345.4,5.632,0.9,22.17,106.982,17.15,18.58,52.44,0,110.6,13.2,17.96,307.4
"2010-09-09 00:01:30",144304,15.87,339.7,6.861,1.373,20.02,106.9549,17.08,18.41,52.49,0,110.6,13.2,17.89,301.7
"2010-09-09 00:02:00",144305,15.63,339.3,6.417,1.253,19.16,106.9268,17.01,18.28,52.45,0,110.6,13.2,17.82,301.3
"2010-09-09 00:02:30",144306,14.79,339.5,7.398,1.184,19.19,106.9093,16.96,18.21,53.03,0,110.6,13.2,17.77,301.5
"2010-09-09 00:03:00",144307,14.63,335.8,5.932,1.237,18.31,106.8908,16.92,18.11,52.75,0,110.6,13.2,17.73,297.8
"2010-09-09 00:03:30",144308,15.87,345.4,5.879,0.984,21.77,106.8632,16.84,18.16,53.61,0,110.6,13.2,17.66,307.4
"2010-09-09 00:04:00",144309,16.47,348.3,3.007,0.865,22.77,106.8421,16.79,18.26,53.83,0,110.6,13.2,17.60,310.3
"2010-09-09 00:04:30",144310,15.9,348.3,3.79,0.877,23.09,106.8213,16.74,18.18,54.42,0,110.6,13.2,17.55,310.3
"2010-09-09 00:05:00",144311,16.18,347,3.837,0.903,22.72,106.7935,16.67,18.12,54.17,0,110.6,13.2,17.48,309.0
"2010-09-09 00:05:30",144312,15.52,348.6,3.332,1.032,22.83,106.7698,16.61,18.06,54.41,0,110.6,13.2,17.42,310.6
"2010-09-09 00:06:00",144313,15.91,349.1,3.717,0.795,22.45,106.7763,16.62,18,54.51,0,110.6,13.2,17.43,311.1
"2010-09-09 00:06:30",144314,15.7,347.5,4.37,0.891,22.31,106.7574,16.57,17.97,54.21,0,110.6,13.2,17.38,309.5
"2010-09-09 00:07:00",144315,16.04,348.6,3.775,0.855,22.02,106.7542,16.57,17.91,53.9,0,110.6,13.21,17.38,310.6
"2010-09-09 00:07:30",144316,15.3,345.4,6.206,1.254,20.58,106.7573,16.57,17.75,54.06,0,110.6,13.21,17.38,307.4
"2010-09-09 00:08:00",144317,13.22,335.7,0.937,0.234,17.27,106.7565,16.57,17.51,53.9,0,110.6,13.25,17.38,297.7
"2010-09-09 00:08:30",144318,13.56,335.7,1.041,0.179,12.23,106.759,16.58,17.49,52.91,0,110.6,13.25,17.39,297.7
"2010-09-09 00:09:00",144319,13.19,335.6,0.862,0.201,17.8,106.759,16.58,17.48,53.34,0,110.6,13.25,17.39,297.6
"2010-09-09 00:09:30",144320,13.83,340.4,6.352,1.215,19.96,106.759,16.58,17.61,52.8,0,110.6,13.21,17.39,302.4
"2010-09-09 00:10:00",144321,13.5,337.3,5.068,0.938,19.21,106.759,16.58,17.55,52.7,0,110.6,13.21,17.39,299.3
"2010-09-09 00:10:30",144322,14.89,345.5,6.949,1.247,22.31,106.759,16.58,17.74,52.87,0,110.6,13.22,17.39,307.5
"2010-09-09 00:11:00",144323,13.58,340.1,5.597,1.241,19.66,106.7754,16.62,17.57,52.5,0,110.6,13.22,17.43,302.1
"2010-09-09 00:11:30",144324,14.1,343.8,6.849,1.307,20.69,106.7926,16.66,17.57,52.57,0,110.6,13.22,17.47,305.8
"2010-09-09 00:12:00",144325,13.66,341.3,5.981,1.167,19.52,106.7931,16.66,17.58,52.61,0,110.6,13.22,17.48,303.3
"2010-09-09 00:12:30",144326,13.99,345.1,6.791,1.34,20.75,106.8078,16.7,17.65,52.86,0,110.6,13.22,17.51,307.1
"2010-09-09 00:13:00",144327,12.85,338,0.865,0.145,18.5,106.8261,16.75,17.65,52.72,0,110.6,13.26,17.56,300.0
"2010-09-09 00:13:30",144328,12.59,338.1,0.866,0.239,18.57,106.8266,16.75,17.6,52.8,0,110.6,13.26,17.56,300.1
"2010-09-09 00:14:00",144329,12.48,338.7,0.915,0.23,18.72,106.8278,16.75,17.6,52.93,0,110.6,13.26,17.56,300.7
"2010-09-09 00:14:30",144330,12.8,337.6,0.864,0.109,18.73,106.8418,16.79,17.64,52.62,0,110.6,13.26,17.60,299.6
"2010-09-09 00:15:00",144331,12.53,336,1.069,0.208,18.87,106.8673,16.86,17.65,52.86,0,110.5,13.27,17.67,298.0
"2010-09-09 00:15:30",144332,12.67,334.9,1.411,0.207,18.91,106.8755,16.88,17.67,53.18,0,110.5,13.27,17.69,296.9
"2010-09-09 00:16:00",144333,12.27,333.4,1.38,0.293,18.84,106.8824,16.89,17.68,53.68,0,110.5,13.27,17.70,295.4
"2010-09-09 00:16:30",144334,12.4,334.2,1.137,0.285,18.83,106.8845,16.9,17.7,53.66,0,110.5,13.27,17.71,296.2
"2010-09-09 00:17:00",144335,12.39,333.6,0.728,0.222,18.81,106.8893,16.91,17.71,53.68,0,110.5,13.27,17.72,295.6
"2010-09-09 00:17:30",144336,12.66,334.3,0.824,0.265,18.78,106.8824,16.89,17.71,53.48,0,110.5,13.27,17.70,296.3
"2010-09-09 00:18:00",144337,12.92,335,0.425,0.142,18.73,106.8621,16.84,17.71,53.01,0,110.5,13.27,17.65,297.0
"2010-09-09 00:18:30",144338,13.2,334,0.482,0.095,18.83,106.8624,16.84,17.68,52.26,0,110.5,13.27,17.65,296.0
"2010-09-09 00:19:00",144339,13.06,334.2,0.797,0.158,18.82,106.8625,16.84,17.68,51.78,0,110.5,13.27,17.65,296.2
"2010-09-09 00:19:30",144340,13.03,333.9,0.776,0.107,18.89,106.8599,16.84,17.67,51.65,0,110.5,13.27,17.65,295.9
"2010-09-09 00:20:00",144341,12.88,333.2,0.729,0.222,18.98,106.8594,16.83,17.66,52.01,0,110.5,13.27,17.65,295.2
"2010-09-09 00:20:30",144342,12.48,333,0.889,0.15,18.88,106.8627,16.84,17.68,52.17,0,110.5,13.27,17.65,295.0
"2010-09-09 00:21:00",144343,12.52,333.2,0.451,0.111,18.86,106.8627,16.84,17.67,52.08,0,110.5,13.27,17.65,295.2
"2010-09-09 00:21:30",144344,12.21,335,0.463,0.086,18.77,106.8627,16.84,17.7,52.4,0,110.5,13.27,17.65,297.0
"2010-09-09 00:22:00",144345,12.19,334.7,0.668,0.078,18.65,106.8627,16.84,17.7,51.96,0,110.5,13.27,17.65,296.7
"2010-09-09 00:22:30",144346,12.05,334.6,0.523,0.141,18.71,106.863,16.84,17.72,51.74,0,110.5,13.28,17.65,296.6
"2010-09-09 00:23:00",144347,11.87,335.6,0.526,0.078,18.67,106.8627,16.84,17.71,51.71,0,110.5,13.28,17.65,297.6
"2010-09-09 00:23:30",144348,11.96,334.2,0.584,0.082,18.77,106.8627,16.84,17.71,51.75,0,110.5,13.28,17.65,296.2
"2010-09-09 00:24:00",144349,11.81,333.1,0.354,0.106,18.74,106.8619,16.84,17.71,51.87,0,110.5,13.28,17.65,295.1
"2010-09-09 00:24:30",144350,11.85,332.3,0.605,0.152,18.78,106.8619,16.84,17.71,51.75,0,110.5,13.28,17.65,294.3
"2010-09-09 00:25:00",144351,11.8,332.7,0.589,0.064,18.97,106.8627,16.84,17.71,51.77,0,110.5,13.28,17.65,294.7
"2010-09-09 00:25:30",144352,11.75,332.1,0.452,0.058,19.1,106.8684,16.86,17.72,51.47,0,110.5,13.29,17.67,294.1
"2010-09-09 00:26:00",144353,11.72,331.8,0.548,0.119,19.23,106.8946,16.92,17.74,51.27,0,110.5,13.29,17.74,293.8
"2010-09-09 00:26:30",144354,11.59,330.4,1.283,0.174,19.36,106.8991,16.94,17.77,51.57,0,110.5,13.29,17.75,292.4
"2010-09-09 00:27:00",144355,11.19,327.6,2.556,0.302,19.41,106.9267,17.01,17.8,52.01,0,110.5,13.29,17.82,289.6
"2010-09-09 00:27:30",144356,11.89,330.3,6.855,1.19,20.57,106.9368,17.03,17.86,52.27,0,110.5,13.25,17.84,292.3
"2010-09-09 00:28:00",144357,11.7,330.6,5.681,1.293,21.01,106.9594,17.09,18,52.58,0,110.5,13.25,17.90,292.6
"2010-09-09 00:28:30",144358,11.9,332.1,6.793,1.435,21.28,106.9642,17.1,18.05,52.33,0,110.5,13.25,17.92,294.1
"2010-09-09 00:29:00",144359,11.28,328.4,1.309,0.283,19.63,106.9647,17.1,18.01,51.84,0,110.5,13.29,17.92,290.4
"2010-09-09 00:29:30",144360,12.3,331.1,9.18,1.334,21.43,106.9811,17.15,18.04,52.27,0,110.5,13.25,17.96,293.1
"2010-09-09 00:30:00",144361,13.16,335.6,5.6,1.168,22.84,106.9986,17.19,18.24,52.43,0,110.5,13.25,18.00,297.6
"2010-09-09 00:30:30",144362,12.17,334.5,6.561,1.307,21.02,107.0016,17.2,18.16,51.3,0,110.5,13.25,18.01,296.5
"2010-09-09 00:31:00",144363,11.72,330.4,5.424,0.977,19.81,107.0055,17.21,18.17,51.17,0,110.5,13.25,18.02,292.4
"2010-09-09 00:31:30",144364,12.28,334,7.07,1.399,20.49,107.0213,17.25,18.12,50.97,0,110.5,13.25,18.06,296.0
"2010-09-09 00:32:00",144365,12.47,333.9,7.694,1.321,20.91,107.0346,17.28,18.25,51.3,0,110.5,13.25,18.10,295.9
"2010-09-09 00:32:30",144366,11.1,328.4,1.536,0.281,18.69,107.045,17.31,18.16,51.56,0,110.5,13.28,18.12,290.4
"2010-09-09 00:33:00",144367,12.57,334.3,8.32,1.511,20.88,107.0523,17.33,18.29,51.55,0,110.5,13.24,18.14,296.3
"2010-09-09 00:33:30",144368,12.85,338.3,6.432,1.31,22.17,107.0535,17.33,18.34,51.59,0,110.5,13.24,18.14,300.3
"2010-09-09 00:34:00",144369,12.96,341.2,6.585,1.284,22.06,107.0589,17.35,18.37,51.12,0,110.5,13.24,18.16,303.2
"2010-09-09 00:34:30",144370,12.85,338.9,6.811,1.337,20.79,107.0616,17.35,18.25,50.84,0,110.5,13.24,18.17,300.9
"2010-09-09 00:35:00",144371,12.41,337.8,6.958,1.351,20.4,107.065,17.36,18.31,50.78,0,110.5,13.24,18.17,299.8
"2010-09-09 00:35:30",144372,11.53,332.5,1.182,0.171,18.63,107.0647,17.36,18.27,50.62,0,110.5,13.28,18.17,294.5
"2010-09-09 00:36:00",144373,11.61,332.9,0.608,0.135,18.58,107.0661,17.36,18.19,50.67,0,110.5,13.28,18.18,294.9
"2010-09-09 00:36:30",144374,11.36,332.1,1.283,0.17,18.54,107.067,17.37,18.2,50.86,0,110.5,13.28,18.18,294.1
"2010-09-09 00:37:00",144375,11.04,330.1,0.659,0.216,18.7,107.0677,17.37,18.19,51.59,0,110.5,13.28,18.18,292.1
"2010-09-09 00:37:30",144376,12.07,336.7,7.367,1.399,21.24,107.0668,17.37,18.39,52.01,0,110.5,13.24,18.18,298.7
"2010-09-09 00:38:00",144377,12.72,340.6,6.52,1.452,22.39,107.0497,17.32,18.47,51.82,0,110.5,13.24,18.14,302.6
"2010-09-09 00:38:30",144378,12.63,340.2,7.036,1.462,21.95,107.0344,17.28,18.39,51.73,0,110.5,13.24,18.10,302.2
"2010-09-09 00:39:00",144379,10.74,330.2,0.864,0.111,18.52,107.0342,17.28,18.15,51.57,0,110.5,13.28,18.10,292.2
"2010-09-09 00:39:30",144380,10.75,330.7,0.508,0.092,18.56,107.0342,17.28,18.16,51.96,0,110.5,13.28,18.10,292.7
"2010-09-09 00:40:00",144381,10.76,329.7,0.874,0.13,18.68,107.0333,17.28,18.14,52.16,0,110.5,13.29,18.09,291.7
"2010-09-09 00:40:30",144382,10.67,329.8,1.023,0.087,18.91,107.0215,17.25,18.13,52.3,0,110.5,13.29,18.06,291.8
"2010-09-09 00:41:00",144383,10.45,331.2,0.771,0.128,19.16,107.0085,17.22,18.12,52.64,0,110.5,13.29,18.03,293.2
"2010-09-09 00:41:30",144384,10.55,329.6,1.294,0.125,19.22,107.0003,17.2,18.11,52.52,0,110.5,13.29,18.01,291.6
"2010-09-09 00:42:00",144385,11.2,331.4,4.98,1.034,20.12,107.0006,17.2,18.1,52.64,0,110.5,13.26,18.01,293.4
"2010-09-09 00:42:30",144386,11.47,334.1,6.368,1.187,20.91,107.0158,17.24,18.32,53.12,0,110.5,13.26,18.05,296.1
"2010-09-09 00:43:00",144387,12.31,339.3,6.558,1.328,22.66,107.024,17.26,18.33,52.88,0,110.5,13.26,18.07,301.3
"2010-09-09 00:43:30",144388,10.76,333.1,5.933,0.993,20,107.0192,17.24,18.28,52.35,0,110.5,13.26,18.06,295.1
"2010-09-09 00:44:00",144389,10,330.3,0.861,0.243,18.63,107.0105,17.22,18.11,52.09,0,110.5,13.29,18.03,292.3
"2010-09-09 00:44:30",144390,10.1,330.6,0.877,0.18,18.64,107.0046,17.21,18.11,51.72,0,110.5,13.29,18.02,292.6
"2010-09-09 00:45:00",144391,9.7,331.2,0.541,0.115,18.62,107.0141,17.23,18.12,51.57,0,110.5,13.29,18.04,293.2
"2010-09-09 00:45:30",144392,9.8,330.7,0.721,0.166,18.73,107.0108,17.22,18.11,51.31,0,110.5,13.29,18.04,292.7
"2010-09-09 00:46:00",144393,9.76,330.3,1.359,0.176,18.95,107.0161,17.24,18.11,50.9,0,110.5,13.29,18.05,292.3
"2010-09-09 00:46:30",144394,10.08,330.1,1.311,0.282,19.16,107.0282,17.27,18.11,50.71,0,110.5,13.29,18.08,292.1
"2010-09-09 00:47:00",144395,10.2,332.7,1.181,0.216,19.38,107.0342,17.28,18.14,50.27,0,110.5,13.3,18.10,294.7
"2010-09-09 00:47:30",144396,10.56,333.7,3.89,0.936,19.67,107.0342,17.28,18.14,50.12,0,110.5,13.26,18.10,295.7
"2010-09-09 00:48:00",144397,11.23,338.8,6.577,1.35,21.79,107.0384,17.29,18.33,50.36,0,110.5,13.26,18.11,300.8
"2010-09-09 00:48:30",144398,10.93,337.5,7.718,1.235,21.41,107.048,17.32,18.38,50.25,0,110.5,13.26,18.13,299.5
"2010-09-09 00:49:00",144399,11.36,339,7.383,1.291,21.68,107.0606,17.35,18.28,50.73,0,110.5,13.26,18.16,301.0
"2010-09-09 00:49:30",144400,11.19,339.2,7.378,1.413,21.52,107.0674,17.37,18.4,51.29,0,110.5,13.26,18.18,301.2
"2010-09-09 00:50:00",144401,10.78,333.4,7.146,1.418,20.64,107.068,17.37,18.37,52.53,0,110.5,13.26,18.18,295.4
"2010-09-09 00:50:30",144402,9.76,328.2,0.737,0.127,18.52,107.068,17.37,18.22,52.74,0,110.5,13.29,18.18,290.2
"2010-09-09 00:51:00",144403,9.77,329.1,0.662,0.098,18.58,107.068,17.37,18.23,52.85,0,110.5,13.29,18.18,291.1
"2010-09-09 00:51:30",144404,9.76,329.9,0.745,0.179,18.75,107.068,17.37,18.24,52.85,0,110.5,13.29,18.18,291.9
"2010-09-09 00:52:00",144405,9.66,329.7,0.685,0.105,19.13,107.068,17.37,18.25,52.92,0,110.5,13.29,18.18,291.7
"2010-09-09 00:52:30",144406,9.54,331.9,2.759,0.461,19.54,107.0888,17.42,18.28,52.96,0,110.5,13.26,18.24,293.9
"2010-09-09 00:53:00",144407,9.44,334.3,5.219,0.984,20.47,107.1018,17.46,18.45,53.63,0,110.4,13.26,18.27,296.3
"2010-09-09 00:53:30",144408,9.96,338.7,6.342,1.339,21.11,107.1238,17.51,18.34,52.96,0,110.5,13.25,18.33,300.7
"2010-09-09 00:54:00",144409,8.19,333.3,1.126,0.238,19.53,107.1373,17.55,18.37,53.81,0,110.5,13.29,18.36,295.3
"2010-09-09 00:54:30",144410,8,333.6,1.845,0.245,19.37,107.1692,17.63,18.4,53.61,0,110.5,13.29,18.44,295.6
"2010-09-09 00:55:00",144411,8.14,335.9,1.312,0.327,19.41,107.1948,17.69,18.48,53.29,0,110.5,13.29,18.51,297.9
"2010-09-09 00:55:30",144412,7.653,336.7,1.473,0.202,19.67,107.2103,17.73,18.52,53.28,0,110.5,13.29,18.55,298.7
"2010-09-09 00:56:00",144413,7.389,336.1,1.678,0.303,19.72,107.2389,17.81,18.57,52.74,0,110.5,13.29,18.62,298.1
"2010-09-09 00:56:30",144414,7.018,338.7,2.511,0.223,19.73,107.267,17.88,18.63,52.3,0,110.5,13.3,18.69,300.7
"2010-09-09 00:57:00",144415,7.276,340.5,1.564,0.28,19.62,107.2865,17.93,18.68,52.12,0,110.5,13.3,18.74,302.5
"2010-09-09 00:57:30",144416,6.874,343.2,2.918,0.247,19.65,107.309,17.99,18.74,51.65,0,110.5,13.3,18.80,305.2
"2010-09-09 00:58:00",144417,7.588,345.4,1.223,0.295,19.52,107.3389,18.06,18.8,51.4,0,110.5,13.31,18.88,307.4
"2010-09-09 00:58:30",144418,8.14,345.7,1.178,0.17,19.45,107.3457,18.08,18.84,51.5,0,110.5,13.31,18.90,307.7
"2010-09-09 00:59:00",144419,7.812,345.9,1.884,0.148,19.36,107.371,18.15,18.87,51.18,0,110.5,13.31,18.96,307.9
"2010-09-09 00:59:30",144420,7.853,346.3,1.357,0.236,19.34,107.3758,18.16,18.91,51.1,0,110.5,13.31,18.97,308.3
"2010-09-09 01:00:00",144421,7.596,343.8,1.82,0.231,19.37,107.4051,18.23,18.96,50.67,0,110.5,13.31,19.05,305.8
"2010-09-09 01:00:30",144422,7.183,342.8,1.347,0.235,19.33,107.4141,18.26,19.01,50.33,0,110.5,13.31,19.07,304.8
"2010-09-09 01:01:00",144423,7.643,341.8,1.452,0.261,19.23,107.4394,18.32,19.05,49.83,0,110.5,13.31,19.14,303.8
"2010-09-09 01:01:30",144424,7.484,343.1,2.225,0.255,19.24,107.4422,18.33,19.1,49.51,0,110.5,13.31,19.14,305.1
"2010-09-09 01:02:00",144425,7.44,342.6,1.328,0.231,19.19,107.4704,18.4,19.14,49.21,0,110.5,13.31,19.22,304.6
"2010-09-09 01:02:30",144426,7.832,344.9,1.389,0.126,19.07,107.4738,18.41,19.17,48.45,0,110.5,13.31,19.23,306.9
"2010-09-09 01:03:00",144427,7.802,346.4,0.69,0.141,19.06,107.4738,18.41,19.19,48.04,0,110.5,13.31,19.23,308.4
"2010-09-09 01:03:30",144428,7.878,344.8,0.742,0.09,18.92,107.4738,18.41,19.2,47.31,0,110.5,13.31,19.23,306.8
"2010-09-09 01:04:00",144429,7.617,345.7,2.521,0.419,18.81,107.4738,18.41,19.21,46.3,0,110.5,13.3,19.23,307.7
"2010-09-09 01:04:30",144430,7.41,347,1.912,0.267,18.86,107.4738,18.41,19.21,45.79,0,110.5,13.3,19.23,309.0
"2010-09-09 01:05:00",144431,6.91,348.8,2.992,0.675,18.87,107.4738,18.41,19.23,44.98,0,110.5,13.31,19.23,310.8
"2010-09-09 01:05:30",144432,6.924,348.6,2.744,0.467,18.93,107.4738,18.41,19.24,44.75,0,110.5,13.3,19.23,310.6
"2010-09-09 01:06:00",144433,6.772,349,2.891,0.802,19,107.4738,18.41,19.25,44.62,0,110.5,13.3,19.23,311.0
"2010-09-09 01:06:30",144434,6.898,346.2,1.354,0.245,19.03,107.4738,18.41,19.26,45.55,0,110.5,13.3,19.23,308.2
"2010-09-09 01:07:00",144435,6.752,343.1,2.475,0.138,19.03,107.4738,18.41,19.28,45.6,0,110.5,13.3,19.23,305.1
"2010-09-09 01:07:30",144436,6.794,341.8,1.268,0.144,19.14,107.4853,18.44,19.28,46.17,0,110.5,13.3,19.26,303.8
"2010-09-09 01:08:00",144437,6.393,342.1,1.042,0.23,19.07,107.5073,18.5,19.29,46.12,0,110.5,13.3,19.31,304.1
"2010-09-09 01:08:30",144438,6.093,341.6,1.393,0.087,18.96,107.5076,18.5,19.31,45.25,0,110.5,13.3,19.31,303.6
"2010-09-09 01:09:00",144439,5.934,342.3,1.343,0.105,18.92,107.5076,18.5,19.33,44.58,0,110.5,13.3,19.31,304.3
"2010-09-09 01:09:30",144440,5.721,342.8,1.132,0.098,18.92,107.5248,18.54,19.34,44.75,0,110.5,13.3,19.36,304.8
"2010-09-09 01:10:00",144441,5.69,345,1.733,0.131,18.95,107.5395,18.58,19.36,43.95,0,110.5,13.3,19.40,307.0
"2010-09-09 01:10:30",144442,5.766,343,2.679,0.167,19.05,107.5414,18.58,19.38,44.89,0,110.5,13.3,19.40,305.0
"2010-09-09 01:11:00",144443,5.772,343.6,1.98,0.123,19.03,107.5657,18.65,19.42,44.96,0,110.5,13.3,19.46,305.6
"2010-09-09 01:11:30",144444,5.35,345.6,1.727,0.127,19,107.5752,18.67,19.45,44.14,0,110.6,13.29,19.49,307.6
"2010-09-09 01:12:00",144445,5.425,344.3,1.524,0.209,18.96,107.5752,18.67,19.45,43.98,0,110.6,13.29,19.49,306.3
"2010-09-09 01:12:30",144446,5.573,342.3,1.681,0.17,18.99,107.5823,18.69,19.48,44.49,0,110.6,13.29,19.51,304.3
"2010-09-09 01:13:00",144447,5.549,340.2,0.974,0.064,18.87,107.6054,18.75,19.5,44.63,0,110.6,13.29,19.56,302.2
"2010-09-09 01:13:30",144448,5.628,342.5,1.349,0.117,18.94,107.6088,18.76,19.52,44.34,0,110.6,13.29,19.57,304.5
"2010-09-09 01:14:00",144449,5.666,343.1,1.286,0.145,19.04,107.6088,18.76,19.53,44.04,0,110.6,13.3,19.57,305.1
"2010-09-09 01:14:30",144450,5.955,343,1.592,0.146,19.14,107.6085,18.76,19.56,43.47,0,110.6,13.3,19.57,305.0
"2010-09-09 01:15:00",144451,6.034,340.6,1.243,0.126,19.21,107.6288,18.81,19.57,44,0,110.6,13.3,19.63,302.6
"2010-09-09 01:15:30",144452,5.802,340.7,1.36,0.111,19.05,107.6423,18.84,19.6,42.91,0,110.6,13.3,19.66,302.7
"2010-09-09 01:16:00",144453,5.595,340.9,2.587,0.168,19.11,107.6417,18.84,19.61,43.24,0,110.6,13.3,19.66,302.9
"2010-09-09 01:16:30",144454,5.907,340,2.448,0.148,19.17,107.6492,18.86,19.64,43.26,0,110.6,13.3,19.68,302.0
"2010-09-09 01:17:00",144455,5.785,341.6,1.798,0.155,19.07,107.6714,18.92,19.67,43.11,0,110.6,13.3,19.73,303.6
"2010-09-09 01:17:30",144456,5.727,341.8,1.374,0.17,19.11,107.6718,18.92,19.69,42.73,0,110.6,13.3,19.74,303.8
"2010-09-09 01:18:00",144457,5.553,344.7,2.106,0.115,19.16,107.6715,18.92,19.7,42.52,0,110.6,13.3,19.74,306.7
"2010-09-09 01:18:30",144458,5.54,344.1,1.5,0.138,19.17,107.6787,18.94,19.73,42.37,0,110.6,13.3,19.75,306.1
"2010-09-09 01:19:00",144459,5.47,342.8,1.53,0.126,19.17,107.6962,18.98,19.76,42.26,0,110.6,13.3,19.80,304.8
"2010-09-09 01:19:30",144460,5.587,339.2,2.236,0.239,19.25,107.6981,18.99,19.77,42.81,0,110.6,13.3,19.80,301.2
"2010-09-09 01:20:00",144461,5.296,338.9,0.972,0.139,19.15,107.6975,18.98,19.79,41.89,0,110.6,13.3,19.80,300.9
"2010-09-09 01:20:30",144462,5.378,336.1,1.118,0.138,19.19,107.7139,19.03,19.81,42.52,0,110.6,13.3,19.84,298.1
"2010-09-09 01:21:00",144463,5.41,336.7,2.12,0.106,19.19,107.7255,19.06,19.83,42.63,0,110.6,13.3,19.87,298.7
"2010-09-09 01:21:30",144464,5.234,340,1.435,0.198,19.2,107.7225,19.05,19.86,41.68,0,110.6,13.3,19.87,302.0
"2010-09-09 01:22:00",144465,5.169,341.1,1.372,0.147,19.21,107.7234,19.05,19.89,41.46,0,110.6,13.3,19.87,303.1
"2010-09-09 01:22:30",144466,5.016,342.7,1.066,0.116,19.24,107.7486,19.11,19.9,39.98,0,110.6,13.29,19.93,304.7
"2010-09-09 01:23:00",144467,5.037,342.3,1.022,0.058,19.28,107.7539,19.13,19.92,39.49,0,110.6,13.3,19.95,304.3
"2010-09-09 01:23:30",144468,4.997,343.2,0.804,0.072,19.26,107.7508,19.12,19.95,39.09,0,110.6,13.29,19.94,305.2
"2010-09-09 01:24:00",144469,4.968,344.7,0.917,0.078,19.17,107.7484,19.11,19.95,39.01,0,110.6,13.29,19.93,306.7
"2010-09-09 01:24:30",144470,4.835,345.7,1.414,0.171,19.17,107.7472,19.11,19.96,38.97,0,110.6,13.29,19.93,307.7
"2010-09-09 01:25:00",144471,4.86,344.9,0.916,0.08,19.16,107.7462,19.11,19.97,38.94,0,110.6,13.29,19.93,306.9
"2010-09-09 01:25:30",144472,4.863,344,1.102,0.068,19.2,107.7514,19.12,19.99,38.81,0,110.6,13.29,19.94,306.0
"2010-09-09 01:26:00",144473,4.941,344.6,2.15,0.181,19.24,107.7657,19.16,19.99,39.47,0,110.6,13.29,19.98,306.6
"2010-09-09 01:26:30",144474,4.969,344.3,1.882,0.109,19.36,107.7753,19.18,20.01,39.07,0,110.6,13.29,20.00,306.3
"2010-09-09 01:27:00",144475,4.944,345.9,0.992,0.047,19.33,107.7764,19.19,20.03,38.65,0,110.6,13.29,20.01,307.9
"2010-09-09 01:27:30",144476,5.001,344.2,1.531,0.112,19.38,107.7789,19.19,20.05,38.51,0,110.6,13.29,20.01,306.2
"2010-09-09 01:28:00",144477,5.034,341.8,1.872,0.097,19.42,107.8003,19.25,20.07,39.09,0,110.6,13.29,20.07,303.8
"2010-09-09 01:28:30",144478,4.927,341.3,1.308,0.115,19.33,107.8093,19.27,20.09,39.26,0,110.6,13.29,20.09,303.3
"2010-09-09 01:29:00",144479,4.778,342.6,1.683,0.151,19.24,107.8093,19.27,20.13,38.39,0,110.6,13.29,20.09,304.6
"2010-09-09 01:29:30",144480,4.931,344.1,0.919,0.061,19.41,107.8189,19.3,20.14,37.83,0,110.6,13.29,20.11,306.1
"2010-09-09 01:30:00",144481,4.799,346.4,0.62,0.056,19.2,107.8423,19.36,20.17,37.3,0,110.6,13.29,20.17,308.4
"2010-09-09 01:30:30",144482,4.905,346.2,0.365,0.08,19.27,107.8434,19.36,20.17,36.54,0,110.6,13.29,20.18,308.2
"2010-09-09 01:31:00",144483,5.072,346.7,0.347,0.112,19.33,107.8431,19.36,20.21,36.08,0,110.6,13.29,20.18,308.7
"2010-09-09 01:31:30",144484,5.108,346.7,0.349,0.1,19.45,107.8471,19.37,20.2,36.38,0,110.6,13.29,20.19,308.7
"2010-09-09 01:32:00",144485,5.012,348,0.611,0.09,19.27,107.8564,19.39,20.23,35.15,0,110.6,13.29,20.21,310.0
"2010-09-09 01:32:30",144486,5.074,348,0.611,0.091,19.16,107.8527,19.38,20.23,34.99,0,110.6,13.29,20.20,310.0
"2010-09-09 01:33:00",144487,5.25,347.1,0.317,0.143,18.92,107.8429,19.36,20.22,35.21,0,110.6,13.29,20.18,309.1
"2010-09-09 01:33:30",144488,5.64,347.6,0.683,0.069,18.72,107.8136,19.28,20.19,36.46,0,110.6,13.29,20.10,309.6
"2010-09-09 01:34:00",144489,5.38,349.6,1.281,0.251,18.79,107.7707,19.17,20.13,36.9,0,110.6,13.29,19.99,311.6
"2010-09-09 01:34:30",144490,5.034,350.3,0.871,0.148,19,107.7417,19.1,20.07,35.99,0,110.6,13.29,19.92,312.3
"2010-09-09 01:35:00",144491,4.94,348.5,1.688,0.18,19.38,107.7417,19.1,20.03,35.97,0,110.6,13.29,19.92,310.5
"2010-09-09 01:35:30",144492,4.875,346.7,0.417,0.053,19.57,107.7634,19.15,20.06,37.5,0,110.6,13.29,19.97,308.7
"2010-09-09 01:36:00",144493,5.043,346.4,0.916,0.065,19.62,107.7961,19.24,20.1,39.16,0,110.6,13.29,20.06,308.4
"2010-09-09 01:36:30",144494,4.959,345.1,0.908,0.093,19.57,107.824,19.31,20.14,39.8,0,110.6,13.29,20.13,307.1
"2010-09-09 01:37:00",144495,5.084,345.6,2.66,0.124,19.61,107.849,19.37,20.19,39.65,0,110.6,13.29,20.19,307.6
"2010-09-09 01:37:30",144496,5.159,342.9,2.173,0.11,19.5,107.8767,19.44,20.22,39.85,0,110.6,13.29,20.26,304.9
"2010-09-09 01:38:00",144497,5.16,341.2,3.37,0.125,19.47,107.8896,19.48,20.26,40.04,0,110.6,13.29,20.30,303.2
"2010-09-09 01:38:30",144498,5.071,344,2.108,0.1,19.46,107.9108,19.53,20.29,39.77,0,110.6,13.29,20.35,306.0
"2010-09-09 01:39:00",144499,5.166,343.5,1.371,0.099,19.5,107.9116,19.53,20.33,39.67,0,110.6,13.29,20.35,305.5
"2010-09-09 01:39:30",144500,5.095,346,1.28,0.094,19.52,107.9364,19.6,20.36,39.37,0,110.6,13.29,20.42,308.0
"2010-09-09 01:40:00",144501,5.047,346.1,1.139,0.09,19.52,107.9446,19.62,20.39,39.68,0,110.6,13.29,20.44,308.1
"2010-09-09 01:40:30",144502,4.84,347.8,1.723,0.232,19.58,107.9446,19.62,20.41,39.19,0,110.6,13.29,20.44,309.8
"2010-09-09 01:41:00",144503,5.053,346.4,2.3,0.181,19.56,107.9567,19.65,20.44,38.97,0,110.6,13.29,20.47,308.4
"2010-09-09 01:41:30",144504,4.798,346.1,1.625,0.138,19.58,107.9753,19.7,20.46,38.92,0,110.6,13.29,20.52,308.1
"2010-09-09 01:42:00",144505,4.842,348.1,0.839,0.079,19.62,107.9784,19.7,20.48,38.58,0,110.6,13.29,20.53,310.1
"2010-09-09 01:42:30",144506,4.802,346.2,2.168,0.166,19.6,107.9784,19.7,20.5,38.94,0,110.6,13.28,20.53,308.2
"2010-09-09 01:43:00",144507,4.686,344.3,1.544,0.139,19.63,107.9784,19.7,20.52,39.25,0,110.7,13.28,20.53,306.3
"2010-09-09 01:43:30",144508,4.486,344.1,1.166,0.082,19.43,107.9784,19.7,20.52,38.68,0,110.7,13.28,20.53,306.1
"2010-09-09 01:44:00",144509,4.531,342.6,1.499,0.125,19.49,107.9826,19.71,20.54,38.88,0,110.6,13.28,20.54,304.6
"2010-09-09 01:44:30",144510,4.684,341.5,1.669,0.119,19.59,108.0015,19.76,20.55,38.86,0,110.6,13.28,20.58,303.5
"2010-09-09 01:45:00",144511,4.542,341.2,1.298,0.081,19.43,108.0062,19.78,20.56,39.04,0,110.7,13.28,20.60,303.2
"2010-09-09 01:45:30",144512,4.37,341.5,0.729,0.067,19.43,108.0113,19.79,20.58,39,0,110.7,13.28,20.61,303.5
"2010-09-09 01:46:00",144513,4.467,339.4,1.295,0.06,19.35,108.0119,19.79,20.59,39.08,0,110.7,13.29,20.61,301.4
"2010-09-09 01:46:30",144514,4.491,339.4,1.098,0.102,19.45,108.0122,19.79,20.6,39.03,0,110.7,13.29,20.61,301.4
"2010-09-09 01:47:00",144515,4.571,339.4,1.137,0.112,19.51,108.0103,19.79,20.61,38.9,0,110.7,13.29,20.61,301.4
"2010-09-09 01:47:30",144516,4.586,338.9,0.967,0.066,19.53,108.0109,19.79,20.62,38.89,0,110.7,13.29,20.61,300.9
"2010-09-09 01:48:00",144517,4.476,339,0.902,0.05,19.34,108.0103,19.79,20.64,38.89,0,110.7,13.29,20.61,301.0